| time (UTC) | temp F | wind direction | speed knots | gust knots | rain 1hr in | rain 24hr in | rain mn in | humidity % | barometer mb |
| 20260906144811 | 65 | 209 | 1.7 | 1.7 | 0.25 | 3.32 | 3.32 | 99 | 1011.2 |
| 20260906143612 | 65 | 209 | 1.7 | 1.7 | 0.25 | 3.32 | 3.32 | 99 | 1011.1 |
| 20260906142412 | 65 | 236 | 0.9 | 1.7 | 0.34 | 3.29 | 3.29 | 99 | 1011.2 |
| 20260906141211 | 65 | 245 | 1.7 | 1.7 | 0.35 | 3.21 | 3.21 | 99 | 1011.0 |
| 20260906140013 | 65 | 261 | 0.9 | 1.7 | 0.39 | 3.16 | 3.16 | 99 | 1011.6 |
| 20260906134812 | 65 | 252 | 0.9 | 0.9 | 0.41 | 3.13 | 3.13 | 99 | 1011.6 |
| 20260906133613 | 65 | 263 | 0.0 | 0.0 | 0.37 | 3.02 | 3.02 | 99 | 1011.9 |
| 20260906132411 | 65 | 292 | 0.9 | 1.7 | 0.39 | 2.94 | 2.94 | 99 | 1012.2 |
| 20260906131212 | 65 | 273 | 0.0 | 0.0 | 0.40 | 2.84 | 2.84 | 99 | 1012.3 |
| 20260906130013 | 65 | 273 | 0.0 | 0.0 | 0.41 | 2.77 | 2.77 | 99 | 1012.2 |
| 20260906124812 | 65 | 273 | 0.0 | 0.0 | 0.40 | 0.00 | 2.71 | 99 | 1012.4 |
| 20260906123613 | 65 | 274 | 0.0 | 0.0 | 0.36 | 0.00 | 2.61 | 99 | 1012.8 |
| 20260906122412 | 65 | 276 | 0.0 | 0.0 | 0.36 | 0.00 | 2.54 | 99 | 1012.9 |
| 20260906121213 | 65 | 263 | 0.0 | 0.0 | 0.27 | 0.00 | 2.42 | 99 | 1013.3 |
| 20260906120011 | 65 | 265 | 0.0 | 0.0 | 0.26 | 0.00 | 2.36 | 99 | 1013.0 |
| 20260906114813 | 65 | 258 | 0.0 | 0.9 | 0.22 | 0.00 | 2.30 | 99 | 1013.3 |
| 20260906113611 | 65 | 285 | 0.0 | 0.0 | 0.17 | 0.00 | 2.22 | 99 | 1013.7 |
| 20260906112413 | 64 | 294 | 0.0 | 0.0 | 0.19 | 0.00 | 2.18 | 99 | 1013.8 |
| 20260906111212 | 64 | 295 | 0.0 | 0.0 | 0.20 | 0.00 | 2.14 | 99 | 1013.5 |
| 20260906110011 | 64 | 296 | 0.0 | 0.0 | 0.20 | 0.00 | 2.10 | 99 | 1013.3 |
| 20260906104811 | 64 | 297 | 0.0 | 0.0 | 0.20 | 0.00 | 2.07 | 99 | 1013.4 |
| 20260906103611 | 65 | 284 | 0.0 | 0.0 | 0.19 | 0.00 | 2.03 | 99 | 1013.3 |
| 20260906102411 | 64 | 350 | 0.0 | 0.0 | 0.18 | 0.00 | 1.98 | 99 | 1013.7 |
| 20260906101213 | 65 | 350 | 0.0 | 0.0 | 0.15 | 0.00 | 1.93 | 99 | 1013.5 |
| 20260906100011 | 65 | 350 | 0.0 | 0.0 | 0.18 | 0.00 | 1.90 | 99 | 1013.7 |
| 20260906094811 | 64 | 350 | 0.0 | 0.0 | 0.18 | 0.00 | 1.87 | 99 | 1013.6 |
| 20260906093612 | 65 | 348 | 0.0 | 0.0 | 0.16 | 0.00 | 1.82 | 99 | 1013.6 |
| 20260906092412 | 65 | 344 | 0.0 | 0.0 | 0.20 | 0.00 | 1.80 | 99 | 1013.5 |
| 20260906091212 | 64 | 344 | 0.0 | 0.0 | 0.21 | 0.00 | 1.77 | 99 | 1013.7 |
| 20260906090011 | 64 | 359 | 0.0 | 0.0 | 0.17 | 0.00 | 1.72 | 99 | 1013.9 |
| 20260906084812 | 65 | 341 | 0.0 | 0.0 | 0.13 | 0.00 | 1.68 | 99 | 1013.7 |
| 20260906083612 | 65 | 341 | 0.0 | 0.0 | 0.09 | 0.00 | 1.64 | 99 | 1013.9 |
| 20260906082412 | 64 | 341 | 0.0 | 0.0 | 0.05 | 0.00 | 1.60 | 99 | 1013.8 |
| 20260906081213 | 65 | 341 | 0.0 | 0.0 | 0.13 | 0.00 | 1.55 | 99 | 1013.7 |
| 20260906080012 | 65 | 341 | 0.0 | 0.0 | 0.13 | 0.00 | 1.52 | 99 | 1013.9 |
| 20260906074811 | 65 | 342 | 0.0 | 0.0 | 0.14 | 0.00 | 1.49 | 99 | 1013.9 |
| 20260906073612 | 65 | 342 | 0.0 | 0.0 | 0.14 | 0.00 | 1.46 | 99 | 1013.9 |
| 20260906072411 | 65 | 342 | 0.0 | 0.0 | 0.16 | 0.00 | 1.44 | 99 | 1013.7 |
| 20260906071211 | 65 | 342 | 0.0 | 0.0 | 0.27 | 0.00 | 1.41 | 99 | 1013.6 |
| 20260906070012 | 65 | 341 | 0.0 | 0.0 | 0.24 | 0.00 | 1.38 | 99 | 1013.7 |
| 20260906064812 | 65 | 341 | 0.0 | 0.0 | 0.21 | 0.00 | 1.35 | 99 | 1013.6 |
| 20260906063611 | 65 | 341 | 0.0 | 0.0 | 0.17 | 0.00 | 1.31 | 99 | 1013.5 |
| 20260906062412 | 65 | 341 | 0.0 | 0.0 | 0.19 | 0.00 | 1.27 | 99 | 1013.9 |
| 20260906060011 | 65 | 340 | 0.0 | 0.0 | 0.23 | 0.00 | 1.14 | 99 | 1013.9 |
| 20260906054811 | 65 | 340 | 0.0 | 0.0 | 0.23 | 0.00 | 1.14 | 99 | 1013.9 |
| 20260906053612 | 65 | 340 | 0.0 | 0.0 | 0.20 | 0.00 | 1.10 | 99 | 1013.9 |
| 20260906052412 | 65 | 340 | 0.0 | 0.0 | 0.25 | 0.00 | 1.08 | 99 | 1014.3 |
| 20260906051211 | 64 | 337 | 0.0 | 0.0 | 0.25 | 0.00 | 1.04 | 99 | 1014.4 |
| 20260906050013 | 64 | 275 | 0.0 | 0.0 | 0.24 | 0.00 | 0.91 | 99 | 1014.3 |
| 20260906044811 | 64 | 275 | 0.0 | 0.0 | 0.24 | 0.00 | 0.91 | 99 | 1014.3 |
| 20260906043612 | 64 | 312 | 0.9 | 0.9 | 0.18 | 0.00 | 0.85 | 99 | 1014.3 |
| 20260906042411 | 64 | 304 | 1.7 | 1.7 | 0.38 | 0.00 | 0.83 | 99 | 1014.6 |
| 20260906041212 | 64 | 215 | 0.0 | 0.0 | 0.32 | 0.00 | 0.77 | 99 | 1014.5 |
| 20260906040013 | 64 | 220 | 0.0 | 0.9 | 0.28 | 0.00 | 0.73 | 99 | 1014.8 |
| 20260906034811 | 65 | 228 | 0.0 | 0.9 | 0.22 | 0.00 | 0.67 | 99 | 1014.8 |
| 20260906033611 | 65 | 254 | 0.0 | 0.0 | 0.21 | 0.00 | 0.65 | 99 | 1015.2 |
| 20260906031212 | 64 | 252 | 0.0 | 0.0 | 0.15 | 0.00 | 0.45 | 99 | 1015.4 |
| 20260906030012 | 64 | 252 | 0.0 | 0.0 | 0.15 | 0.00 | 0.45 | 99 | 1015.4 |
| 20260906024812 | 64 | 252 | 0.0 | 0.0 | 0.17 | 0.00 | 0.45 | 99 | 1015.5 |
| 20260906023612 | 64 | 48 | 0.0 | 0.0 | 0.16 | 0.00 | 0.42 | 99 | 1015.7 |
| 20260906022411 | 65 | 48 | 0.0 | 0.0 | 0.15 | 0.00 | 0.39 | 99 | 1015.8 |
| 20260906021211 | 64 | 44 | 0.0 | 0.0 | 0.16 | 0.00 | 0.36 | 99 | 1016.1 |
| 20260906020012 | 64 | 132 | 0.0 | 0.0 | 0.16 | 0.00 | 0.31 | 99 | 1016.3 |
| 20260906014813 | 64 | 74 | 0.0 | 0.0 | 0.24 | 0.00 | 0.28 | 99 | 1016.2 |
| 20260906013613 | 65 | 44 | 0.0 | 1.7 | 0.21 | 0.00 | 0.25 | 99 | 1016.2 |
| 20260906012413 | 64 | 84 | 1.7 | 3.5 | 0.19 | 0.00 | 0.23 | 99 | 1015.9 |
| 20260906011212 | 65 | 285 | 0.0 | 0.9 | 0.14 | 0.00 | 0.18 | 99 | 1015.9 |
| 20260906010012 | 65 | 244 | 0.0 | 0.0 | 0.11 | 0.00 | 0.15 | 99 | 1016.3 |
| 20260906000012 | 65 | 197 | 1.7 | 1.7 | 0.02 | 0.00 | 0.04 | 99 | 1016.4 |
| 20260905234813 | 65 | 197 | 1.7 | 1.7 | 0.02 | 0.00 | 0.04 | 99 | 1016.4 |
| 20260905233615 | 65 | 266 | 0.9 | 0.9 | 0.02 | 0.00 | 0.03 | 99 | 1016.2 |
| 20260905232413 | 65 | 233 | 0.0 | 0.9 | 0.02 | 0.00 | 0.03 | 99 | 1016.5 |
| 20260905231214 | 65 | 214 | 0.0 | 0.9 | 0.02 | 0.00 | 0.03 | 99 | 1016.3 |
| 20260905230012 | 65 | 274 | 0.0 | 0.9 | 0.02 | 0.00 | 0.02 | 99 | 1016.4 |
| 20260905224814 | 65 | 265 | 1.7 | 1.7 | 0.02 | 0.00 | 0.02 | 99 | 1016.4 |
| 20260905223612 | 65 | 243 | 0.9 | 1.7 | 0.01 | 0.00 | 0.01 | 99 | 1016.1 |
| 20260905222413 | 65 | 212 | 0.9 | 1.7 | 0.01 | 0.00 | 0.01 | 99 | 1016.1 |
| 20260905221213 | 65 | 221 | 0.9 | 1.7 | 0.00 | 0.00 | 0.00 | 99 | 1015.8 |
| 20260905220012 | 65 | 233 | 1.7 | 2.6 | 0.00 | 0.00 | 0.00 | 99 | 1015.8 |
| 20260905214812 | 65 | 257 | 0.9 | 1.7 | 0.00 | 0.00 | 0.00 | 99 | 1015.7 |
| 20260905213612 | 65 | 202 | 0.9 | 1.7 | 0.00 | 0.00 | 0.00 | 99 | 1015.8 |
| 20260905212414 | 65 | 239 | 0.0 | 0.9 | 0.00 | 0.00 | 0.00 | 99 | 1015.9 |
| 20260905211211 | 65 | 257 | 0.0 | 0.0 | 0.00 | 0.00 | 0.00 | 99 | 1015.7 |
| 20260905210013 | 65 | 225 | 0.9 | 0.9 | 0.00 | 0.00 | 0.00 | 99 | 1015.6 |